Regional Weather Roundup
Issued by NWS

Home | Current Version | Previous Version | Graphics & Text | Print | Product List | Glossary Off
Versions: 1 2 3 4 5 6 7 8 9 10 11 12 13 14 15 16 17 18 19 20 21 22 23 24 25 26 27 28 29 30 31 32 33 34 35 36 37 38 39 40 41 42 43 44 45 46 47 48 49 50

000
ASUS43 KMKX 201900
RWRWI

WISCONSIN REGIONAL WEATHER ROUNDUP
NATIONAL WEATHER SERVICE MILWAUKEE/SULLIVAN WI
100 PM CST FRI JAN 20 2017

NOTE: "FAIR" INDICATES FEW OR NO CLOUDS BELOW 12,000 FEET WITH NO
SIGNIFICANT WEATHER AND/OR OBSTRUCTIONS TO VISIBILITY.

WIZ001-002-006>008-014>016-023>028-202000-
NORTHWEST WISCONSIN

CITY           SKY/WX    TMP DP  RH WIND       PRES   REMARKS
SUPERIOR ARPT  DRZL/FOG  35  35 100 E13       29.60F VSB 3/4 WCI  26
ASHLAND        CLOUDY    35  33  92 NE6       29.63F FOG     WCI  30
HAYWARD        LGT RAIN  38  35  89 E3        29.58F FOG
SIREN          CLOUDY    36  35  94 S5        29.59F WCI  32
CUMBERLAND     CLOUDY    34  32  93 SE10      29.59S FOG     WCI  26
RICE LAKE      CLOUDY    35  35  98 SE6       29.60F FOG     WCI  30
CHETEK         CLOUDY    36  35  97 SE7       29.60S FOG     WCI  30
LADYSMITH      LGT RAIN  38  37  97 SE5       29.61S WCI  34
EAU CLAIRE     CLOUDY    35  35 100 SE7       29.59F FOG     WCI  29
MENOMONIE        N/A    N/A N/A N/A MISG        N/A
NEW RICHMOND   CLOUDY    36  36 100 SE5       29.59F FOG     WCI  32
OSCEOLA        CLOUDY    36  36 100 SE5       29.62F WCI  32
$$

WIZ003>005-009-010-017-018-202000-
NORTH CENTRAL WISCONSIN

CITY           SKY/WX    TMP DP  RH WIND       PRES   REMARKS
MANITOWISH WTR CLOUDY    35  35 100 CALM      29.62F
ARBOR VITAE    CLOUDY    37  35  90 E3        29.62F
WOODRUFF       CLOUDY    37  35  90 E3        29.62F
RHINELANDER    LGT RAIN  36  35  96 E7        29.63F FOG     WCI  30
EAGLE RIVER    DRIZZLE   36  33  88 CALM      29.62F
LAND O LAKES   DRIZZLE   38  33  80 CALM      29.64F
PHILLIPS       CLOUDY    37  36  96 E7        29.59F WCI  31
TOMAHAWK       LGT RAIN  36  34  94 CALM      29.62F
MEDFORD        LGT RAIN  35  33  94 E9        29.60F WCI  28
MERRILL        RAIN      36  36 100 CALM        N/A
$$

WIZ029-030-035-036-043>047-202000-
CENTRAL WISCONSIN

CITY           SKY/WX    TMP DP  RH WIND       PRES   REMARKS
WAUSAU         LGT RAIN  35  34  96 E8        29.61F WCI  29
MOSINEE        NOT AVBL
MARSHFIELD     CLOUDY    34  33  96 SE10      29.60F FOG     WCI  26
STEVENS POINT  DRIZZLE   33  33 100 E6        29.63F WCI  28
WAUPACA        DRIZZLE   37  35  91 CALM      29.65F
WAUTOMA        CLOUDY    35  34  96 E6        29.64F FOG     WCI  30
WISC RAPIDS    CLOUDY    36  35  96 SE6       29.63F FOG     WCI  31
CAMP DOUGLAS   NOT AVBL
$$

WIZ011>013-019>022-031-037>040-048>050-202000-
NORTHEAST WISCONSIN

CITY           SKY/WX    TMP DP  RH WIND       PRES   REMARKS
ANTIGO         LGT RAIN  33  33 100 SE8       29.64S WCI  27
SHAWANO        LGT RAIN  36  34  95 CALM      29.67F
OCONTO         CLOUDY    34  34  99 NE7       29.68F WCI  28
STURGEON BAY   FOG       34  33  96 NW6       29.69R VSB 1/4 WCI  29
GREEN BAY      LGT RAIN  35  35 100 NE7       29.66F FOG     WCI  29
MANITOWOC      LGT RAIN  37  36  93 MISG      29.67F VSB 3/4
APPLETON       NOT AVBL
CLINTONVILLE   LGT RAIN  34  34 100 E6        29.66F WCI  29
OSHKOSH        LGT RAIN  35  34  96 NE3       29.64F VSB 3/4
$$

WIZ032>034-041-042-053>061-202000-
SOUTHWEST WISCONSIN

CITY           SKY/WX    TMP DP  RH WIND       PRES   REMARKS
LA CROSSE      CLOUDY    40  36  86 CALM      29.60F FOG
SPARTA         CLOUDY    35  35  99 E6        29.62F FOG     WCI  30
VIROQUA        CLOUDY    36  36 100 SE7       29.59S VSB 1/4 WCI  30
BOSCOBEL       CLOUDY    40  38  93 E3        29.61F FOG
PRAIRIE DU CHI CLOUDY    38  37  97 CALM      29.60F FOG
PLATTEVILLE    CLOUDY    38  38 100 SE5       29.60F VSB 1/2 WCI  35
$$

WIZ056-057-062-063-064-067-068-202000-
SOUTH CENTRAL WISCONSIN

CITY           SKY/WX    TMP DP  RH WIND       PRES   REMARKS
REEDSBURG      CLOUDY    36  36 100 E5        29.61F FOG     WCI  32
BARABOO/DELLS  CLOUDY    35  35  99 E6        29.61F FOG     WCI  30
LONE ROCK      NOT AVBL
MINERAL POINT  FOG       37  37 100 SE6       29.60F VSB 1/4 WCI  33
MADISON        CLOUDY    37  36  96 E9        29.63F FOG     WCI  30
MIDDLETON      CLOUDY    38  38 100 E6        29.62F VSB 1/2 WCI  33
WATERTOWN      CLOUDY    37  37 100 E7        29.62F FOG     WCI  31
MONROE         FOG       36  36 100 E6        29.61F VSB<1/4 WCI  31
JANESVILLE     FOG       39  39 100 E6        29.61F VSB 1   WCI  35
$$

WIZ051-052-058>065-066-070>072-202000-
SOUTHEAST WISCONSIN

CITY           SKY/WX    TMP DP  RH WIND       PRES   REMARKS
MILWAUKEE      CLOUDY    39  37  92 E9        29.64F FOG     WCI  33
WAUKESHA       FOG       36  36 100 NE7       29.64F VSB 1   WCI  30
MILWAUKEE/TIMM CLOUDY    37  36  93 E6        29.65F FOG     WCI  33
RACINE         FOG       38  36  92 E6        29.66F VSB 1/2 WCI  33
KENOSHA        FOG       38  37  97 SE6       29.65F VSB 1/2 WCI  33
FOND DU LAC    CLOUDY    38  34  85 VRB6      29.64F FOG     WCI  33
SHEBOYGAN      CLOUDY    37  36  96 NE9       29.63F FOG     WCI  30
WEST BEND      CLOUDY    36  36 100 E3        29.65S FOG
JUNEAU         CLOUDY    37  36  97 E7        29.64S FOG     WCI  31
$$

LSZ147-162-202000-
LAKE SUPERIOR

STATION/POSITION TIME  TEMP    WIND        PRES    WAVE
                       AIR SEA DIR/SP/G            HT/PER
                 (UTC) (F)     (DEG/KT/KT) (MB)    (FT/S)
DEVILS ISLAND    1800   35      50/  7/  7 1005.0F
PORT WING        1840   34      30/  8/  9 1003.4F
SAXON HARBOR     1840   34      CALM  /  2 1003.7F
$$

LMZ867-665-643>646-202000-
LAKE MICHIGAN

STATION/POSITION TIME  TEMP    WIND        PRES    WAVE
                       AIR SEA DIR/SP/G            HT/PER
                 (UTC) (F)     (DEG/KT/KT) (MB)    (FT/S)
NORTHPORT PIER   1840   33      20/  3/  6 1005.4F
SISTER BAY       1820   35        CALM       N/A
KEWAUNEE LAKESHO 1830   37      30/  4/  7 1004.5F
SHEBOYGAN LAKESH 1800   35      10/  6/  7 1005.0F
PORT WASHINGTON  1830   37      40/  8/ 11 1005.1F
KENOSHA   LAKESH 1800   36        CALM     1004.7
$$

TC  - TEMPERATURE IN CELSIUS
VSB - VISIBILITY IN STATUTE MILES
WCI - WIND CHILL INDEX
HX  - HEAT INDEX




USA.gov is the U.S. government's official web portal to all federal, state and local government web resources and services.